Overview Statistics Trail Chart Weather Telemetry Raw packets
 

This is the latest recevied weather packets stored in our database for station/object HP1CDW-11. If no packets are shown the sender has not sent any weather packets the latest 10 day(s).

<< 49 50 51 52 53 54 55 >>
Time Temp. Humidity Pressure Rain* Wind** Luminosity Snow
1787958363 32.78° C 55% 1007.4 hPa - - - -
1787957762 32.78° C 55% 1007.4 hPa - - - -
1787957162 32.78° C 54% 1007.3 hPa - - - -
1787956562 32.78° C 53% 1007.3 hPa - - - -
1787955961 32.78° C 55% 1007.6 hPa - - - -
1787955361 32.78° C 53% 1007.5 hPa - - - -
1787954761 32.78° C 58% 1007.2 hPa - - - -
1787954160 32.78° C 58% 1007 hPa - - - -
1787953560 32.78° C 58% 1007 hPa - - - -
1787952960 32.78° C 57% 1006.9 hPa - - - -
1787952359 32.78° C 57% 1006.8 hPa - - - -
1787951759 33.33° C 57% 1006.8 hPa - - - -
1787951159 33.33° C 57% 1006.7 hPa - - - -
1787950558 32.78° C 57% 1006.8 hPa - - - -
1787949958 33.33° C 56% 1006.8 hPa - - - -
1787949358 32.78° C 57% 1006.9 hPa - - - -
1787948757 33.33° C 57% 1007 hPa - - - -
1787948157 32.78° C 56% 1006.8 hPa - - - -
1787947557 33.33° C 55% 1006.9 hPa - - - -
1787946956 32.78° C 57% 1007 hPa - - - -
1787946356 32.78° C 57% 1007.1 hPa - - - -
1787945756 32.78° C 57% 1006.9 hPa - - - -
1787945155 32.78° C 56% 1006.9 hPa - - - -
1787944555 32.78° C 56% 1007.2 hPa - - - -
1787943955 32.78° C 55% 1007.4 hPa - - - -

* Rain since midnight (hover to see other rain measurements)
** Current wind speed in m/s (hover to see current wind gust speed)